Terug naar catalogus

ASTRA 1L

ActiefCommunicatieGEO
NORAD 31306·PAYLOAD·🇱🇺 Luxembourg

Gelanceerd May 4, 2007 vanaf Guiana Space Centre

Loading…

TLE

VersSource: CelesTrak SupGP

Epoch: Sep 13, 2026, 23:44 UTC

1 31306C 07016A   26256.98958333 -.00000094  00000+0  00000+0 0  2564
2 31306   1.5449  80.6807 0004878  90.3235 153.7344  1.00271989    11

Volg ASTRA 1L in realtime met AllMySat

Download on the App Store